• In Hungary
  • List of Countries
  • For 7 days
  • Water Temperature
  • Satellite Maps
  • Weather Map
  • News
  • Weather Widgets
  • user-avatar
    Login

    Hourly Weather Shkoder

    Today, 22 September, Saturday

    Time Temperature Precipitation Wind Pressure Humidity
    00:00 +21°C° 0 mm 1 mps 741 mmHg 70%
    01:00 +21°C° 0 mm 1 mps 741 mmHg 68%
    02:00 +20°C° 0 mm 1 mps 741 mmHg 68%
    03:00 +20°C° 0 mm 1 mps 741 mmHg 68%
    04:00 +20°C° 0 mm 1 mps 741 mmHg 68%
    05:00 +21°C° 0 mm 1 mps 741 mmHg 64%
    06:00 +22°C° 0 mm 1 mps 741 mmHg 61%
    07:00 +24°C° 0 mm 1 mps 741 mmHg 53%
    08:00 +26°C° 0 mm 1 mps 741 mmHg 48%
    09:00 +27°C° 0 mm 1 mps 741 mmHg 43%
    10:00 +29°C° 0 mm 1 mps 741 mmHg 39%
    11:00 +30°C° 0 mm 2 mps 741 mmHg 38%
    12:00 +30°C° 0 mm 2 mps 741 mmHg 37%
    13:00 +31°C° 0 mm 2 mps 741 mmHg 36%
    14:00 +30°C° 0 mm 2 mps 741 mmHg 39%
    15:00 +30°C° 0 mm 2 mps 741 mmHg 43%
    16:00 +29°C° 0 mm 2 mps 741 mmHg 46%
    17:00 +27°C° 0 mm 2 mps 741 mmHg 55%
    18:00 +24°C° 0 mm 1 mps 741 mmHg 65%
    19:00 +22°C° 0 mm 1 mps 742 mmHg 74%
    20:00 +22°C° 0 mm 1 mps 742 mmHg 73%
    21:00 +21°C° 0 mm 1 mps 743 mmHg 73%
    22:00 +20°C° 0 mm 2 mps 743 mmHg 73%
    23:00 +20°C° 0 mm 2 mps 743 mmHg 74%

    Tomorrow, 23 September, Sunday

    Time Temperature Precipitation Wind Pressure Humidity
    00:00 +20°C° 0 mm 2 mps 743 mmHg 75%
    01:00 +19°C° 0 mm 2 mps 743 mmHg 76%
    02:00 +19°C° 0 mm 2 mps 743 mmHg 77%
    03:00 +19°C° 0 mm 2 mps 743 mmHg 79%
    04:00 +19°C° 0 mm 2 mps 743 mmHg 80%
    05:00 +21°C° 0 mm 1 mps 743 mmHg 75%
    06:00 +22°C° 0 mm 1 mps 743 mmHg 71%
    07:00 +23°C° 0 mm 1 mps 743 mmHg 67%
    08:00 +25°C° 0 mm 1 mps 743 mmHg 57%
    09:00 +28°C° 0 mm 1 mps 743 mmHg 48%
    10:00 +30°C° 0 mm 1 mps 744 mmHg 39%
    11:00 +31°C° 0 mm 1 mps 743 mmHg 37%
    12:00 +31°C° 0 mm 2 mps 743 mmHg 35%
    13:00 +33°C° 0 mm 3 mps 743 mmHg 33%
    14:00 +31°C° 0 mm 2 mps 743 mmHg 35%
    15:00 +31°C° 0 mm 2 mps 742 mmHg 38%
    16:00 +30°C° 0 mm 2 mps 742 mmHg 41%
    17:00 +27°C° 0 mm 2 mps 742 mmHg 50%
    18:00 +25°C° 0 mm 1 mps 742 mmHg 58%
    19:00 +22°C° 0 mm 1 mps 742 mmHg 67%
    20:00 +22°C° 0 mm 1 mps 742 mmHg 66%
    21:00 +22°C° 0 mm 1 mps 742 mmHg 66%
    22:00 +21°C° 0 mm 1 mps 742 mmHg 65%
    23:00 +20°C° 0 mm 2 mps 742 mmHg 63%

    Day after tomorrow, 24 September, Monday

    Time Temperature Precipitation Wind Pressure Humidity
    00:00 +20°C° 0 mm 2 mps 742 mmHg 61%
    01:00 +19°C° 0 mm 2 mps 741 mmHg 59%
    02:00 +19°C° 0 mm 2 mps 741 mmHg 59%
    03:00 +19°C° 0 mm 2 mps 740 mmHg 60%
    04:00 +18°C° 0 mm 2 mps 740 mmHg 60%
    05:00 +20°C° 0 mm 2 mps 740 mmHg 57%
    06:00 +21°C° 0 mm 2 mps 740 mmHg 55%
    07:00 +23°C° 0 mm 2 mps 740 mmHg 52%
    08:00 +25°C° 0 mm 2 mps 740 mmHg 48%
    09:00 +27°C° 0 mm 2 mps 740 mmHg 44%
    10:00 +29°C° 0 mm 2 mps 740 mmHg 40%
    11:00 +29°C° 0 mm 2 mps 740 mmHg 39%
    12:00 +30°C° 0 mm 2 mps 741 mmHg 39%
    13:00 +30°C° 0 mm 2 mps 741 mmHg 38%
    14:00 +29°C° 0 mm 3 mps 741 mmHg 43%
    15:00 +27°C° 0 mm 3 mps 741 mmHg 49%
    16:00 +26°C° 0 mm 3 mps 741 mmHg 54%
    17:00 +23°C° 0 mm 4 mps 741 mmHg 57%
    18:00 +20°C° 0 mm 5 mps 742 mmHg 60%
    19:00 +17°C° 0 mm 5 mps 743 mmHg 63%
    20:00 +16°C° 0 mm 6 mps 743 mmHg 62%
    21:00 +16°C° 0 mm 6 mps 743 mmHg 61%
    22:00 +15°C° 0 mm 6 mps 744 mmHg 60%
    23:00 +14°C° 0 mm 6 mps 744 mmHg 60%

    25 September, Tuesday

    Time Temperature Precipitation Wind Pressure Humidity
    00:00 +14°C° 0 mm 6 mps 744 mmHg 61%
    01:00 +13°C° 0 mm 6 mps 744 mmHg 61%
    02:00 +13°C° 0.1 mm 6 mps 745 mmHg 62%
    03:00 +13°C° 0.1 mm 6 mps 745 mmHg 64%
    04:00 +11°C° 0.1 mm 6 mps 745 mmHg 65%
    05:00 +11°C° 0.6 mm 6 mps 745 mmHg 67%
    06:00 +11°C° 0.6 mm 6 mps 746 mmHg 70%
    07:00 +11°C° 0.6 mm 7 mps 746 mmHg 72%
    08:00 +12°C° 0 mm 7 mps 746 mmHg 64%
    09:00 +15°C° 0 mm 7 mps 746 mmHg 56%
    10:00 +16°C° 0 mm 6 mps 746 mmHg 48%
    11:00 +19°C° 0 mm 6 mps 746 mmHg 42%
    12:00 +20°C° 0 mm 6 mps 746 mmHg 36%
    13:00 +21°C° 0 mm 6 mps 746 mmHg 31%
    14:00 +20°C° 0 mm 6 mps 746 mmHg 32%
    15:00 +20°C° 0 mm 6 mps 746 mmHg 33%
    16:00 +19°C° 0 mm 6 mps 746 mmHg 35%
    17:00 +16°C° 0 mm 6 mps 747 mmHg 38%
    18:00 +14°C° 0 mm 6 mps 747 mmHg 42%
    19:00 +11°C° 0 mm 6 mps 748 mmHg 46%
    20:00 +10°C° 0 mm 6 mps 749 mmHg 46%
    21:00 +9°C° 0 mm 6 mps 749 mmHg 47%
    22:00 +9°C° 0 mm 6 mps 750 mmHg 47%
    23:00 +8°C° 0 mm 6 mps 750 mmHg 49%

    26 September, Wednesday

    Time Temperature Precipitation Wind Pressure Humidity
    00:00 +8°C° 0 mm 6 mps 750 mmHg 50%
    01:00 +7°C° 0 mm 6 mps 750 mmHg 52%
    02:00 +7°C° 0 mm 6 mps 750 mmHg 53%
    03:00 +7°C° 0 mm 6 mps 751 mmHg 53%
    04:00 +5°C° 0 mm 6 mps 751 mmHg 54%
    05:00 +7°C° 0 mm 6 mps 751 mmHg 51%
    06:00 +8°C° 0 mm 6 mps 751 mmHg 47%
    07:00 +8°C° 0 mm 6 mps 751 mmHg 44%
    08:00 +10°C° 0 mm 6 mps 751 mmHg 38%
    09:00 +12°C° 0 mm 7 mps 751 mmHg 32%
    10:00 +15°C° 0 mm 7 mps 751 mmHg 27%
    11:00 +16°C° 0 mm 6 mps 751 mmHg 25%
    12:00 +17°C° 0 mm 6 mps 750 mmHg 24%
    13:00 +19°C° 0 mm 6 mps 750 mmHg 23%
    14:00 +17°C° 0 mm 6 mps 750 mmHg 24%
    15:00 +17°C° 0 mm 5 mps 750 mmHg 25%
    16:00 +17°C° 0 mm 5 mps 750 mmHg 26%
    17:00 +14°C° 0 mm 4 mps 750 mmHg 31%
    18:00 +12°C° 0 mm 4 mps 751 mmHg 36%
    19:00 +10°C° 0 mm 4 mps 752 mmHg 41%
    20:00 +10°C° 0 mm 4 mps 752 mmHg 43%
    21:00 +8°C° 0 mm 4 mps 752 mmHg 45%
    22:00 +7°C° 0 mm 4 mps 752 mmHg 47%
    23:00 +7°C° 0 mm 4 mps 752 mmHg 47%

    27 September, Thursday

    Time Temperature Precipitation Wind Pressure Humidity
    00:00 +7°C° 0 mm 4 mps 752 mmHg 48%
    01:00 +7°C° 0 mm 4 mps 751 mmHg 48%
    02:00 +7°C° 0 mm 4 mps 751 mmHg 47%
    03:00 +7°C° 0 mm 4 mps 751 mmHg 46%
    04:00 +8°C° 0 mm 3 mps 750 mmHg 45%
    05:00 +9°C° 0 mm 3 mps 750 mmHg 41%
    06:00 +10°C° 0 mm 3 mps 750 mmHg 38%
    07:00 +11°C° 0 mm 3 mps 749 mmHg 35%
    08:00 +14°C° 0 mm 3 mps 749 mmHg 30%
    09:00 +18°C° 0 mm 3 mps 748 mmHg 25%
    10:00 +21°C° 0 mm 3 mps 748 mmHg 21%
    11:00 +22°C° 0 mm 3 mps 747 mmHg 20%
    12:00 +24°C° 0 mm 3 mps 746 mmHg 19%
    13:00 +25°C° 0 mm 4 mps 745 mmHg 19%
    14:00 +25°C° 0 mm 4 mps 745 mmHg 20%
    15:00 +23°C° 0 mm 4 mps 744 mmHg 22%
    16:00 +23°C° 0 mm 4 mps 744 mmHg 24%
    17:00 +21°C° 0 mm 4 mps 744 mmHg 28%
    18:00 +18°C° 0 mm 4 mps 744 mmHg 31%
    19:00 +16°C° 0 mm 3 mps 744 mmHg 35%
    20:00 +14°C° 0 mm 3 mps 744 mmHg 35%
    21:00 +14°C° 0 mm 3 mps 743 mmHg 35%
    22:00 +13°C° 0 mm 4 mps 743 mmHg 35%
    23:00 +13°C° 0 mm 4 mps 743 mmHg 35%
    Show more